Other Public Products
Issued by NWS Grand Forks, ND

Home | Current Version | Previous Version | Graphics & Text | Print | Product List | Glossary On
Versions: 1 2 3 4 5 6 7 8 9 10 11 12 13 14 15 16 17 18 19 20 21 22 23 24 25 26 27 28 29 30 31 32 33 34 35 36 37 38 39 40 41 42 43 44 45 46 47 48 49 50
000
FPUS83 KFGF 250410
OPUFGF
PRAIRIE TO PINES WEATHER ROUNDUP
NATIONAL WEATHER SERVICE EASTERN NORTH DAKOTA/GRAND FORKS ND
1100 PM CDT THU APR 24 2014

 **SATELLITE DATA USED TO AUGMENT SKY COVER AT AUTOMATED STATIONS**
 *****  WEATHER ACROSS EASTERN NORTH DAKOTA  *****

CITY           SKY/WX    TMP DP  RH WIND       PRES   REMARKS
GRAND FORKS    CLOUDY    40  39  97 CALM      29.70F FOG
GRAND FORKS AF CLOUDY    40  40 100 CALM      29.72F FOG
GRAND CITY NWS   N/A     39 N/A N/A MISG        N/A
BUXTON         NOT AVBL
DEVILS LAKE    CLOUDY    36  30  80 CALM      29.72R VSB<1/4
FARGO          CLOUDY    41  40  96 N6        29.70S FOG
WAHPETON ARPT  CLEAR     37  34  87 SW6       29.69F
$$

 *****  WEATHER ACROSS CENTRAL AND WESTERN NORTH DAKOTA  *****

CITY           SKY/WX    TMP DP  RH WIND       PRES   REMARKS
JAMESTOWN      CLEAR     39  35  86 SW3       29.72R
BISMARCK       CLEAR     36  29  75 S3        29.76R
MINOT          PTCLDY    46  32  58 SW5       29.70F
MINOT AFB      PTCLDY    43  37  77 W5        29.70S
GARRISON         N/A     43  33  68 CALM      29.73R
WILLISTON      PTCLDY    38  28  67 CALM      29.71S
DICKINSON      MOCLDY    41  24  51 CALM      29.74R
HETTINGER      CLOUDY    46  25  43 W7        29.78R
$$

 *****  OTHER OBSERVATIONS NORTHEAST NORTH DAKOTA  *****

CITY           SKY/WX    TMP DP  RH WIND       PRES   REMARKS
WALHALLA       FOG       37  37 100 E5        29.74S VSB 1/2
LANGDON        CLOUDY    39  39 100 S5        29.70F FOG
CAVALIER       CLOUDY    37  37 100 E5        29.73F FOG
GRAFTON        FOG       37  37 100 E3        29.73R VSB 1/2
CANDO          FOG       36  36 100 SE5       29.72S VSB<1/4
FORT TOTTEN      N/A     38  37  97 SE2       29.95S
ROLLA          FAIR      36  36 100 SW3       29.71S
RUGBY          FAIR      41  41 100 SE6       29.71S
 ***** THE ABOVE OBSERVATIONS ARE NON NWS ARE NOT QUALITY
        CONTROLLED AND MAY MIS-REPORT RAIN FOR SNOW...
$$

 *****  OTHER OBSERVATIONS SOUTHEAST NORTH DAKOTA *****

CITY           SKY/WX    TMP DP  RH WIND       PRES   REMARKS
COOPERSTOWN    MOCLDY    37  37 100 N3        29.71S FOG
VALLEY CITY    FAIR      37  37 100 W8        29.71R
OAKES          FAIR      41  37  87 NW5       29.74S
GWINNER        CLEAR     41  41 100 CALM      29.74F
BUFFALO        NOT AVBL
WYNDMERE       NOT AVBL
 ***** THE ABOVE OBSERVATIONS ARE NON NWS ARE NOT QUALITY
       CONTROLLED AND MAY MIS-REPORT RAIN FOR SNOW...
$$

  *****  WEATHER ACROSS NORTHERN MINNESOTA  *****

CITY           SKY/WX    TMP DP  RH WIND       PRES   REMARKS
FLAG ISLAND    LGT SNOW  34  32  93 NE3       29.75F
WARROAD        LGT SNOW  32  28  86 NE6       29.74F
ROSEAU         LGT SNOW  34  28  80 E8        29.72F
HALLOCK        CLOUDY    36  34  93 E5        29.74S
THF RVR FALLS  CLOUDY    34  30  86 E3        29.73S
HALSTAD          N/A     41  39  94 N5          N/A
FOSSTON        FOG       32  32 100 CALM      29.71S VSB 3/4
BAUDETTE       LGT SNOW  33  32  96 NE7       29.72F FOG
WASKISH        LGT SNOW  34  32  93 NE3       29.71F
CROOKSTON      MIX PCPN  37  36  93 NE6       29.72F
$$
  *****  WEATHER ACROSS CENTRAL AND WEST MINNESOTA  *****

CITY           SKY/WX    TMP DP  RH WIND       PRES   REMARKS
BEMIDJI        CLOUDY    32  32 100 CALM      29.68F
PARK RAPIDS    FOG       33  33 100 CALM      29.67F VSB 1/4
WADENA         FOG       34  32  93 CALM      29.67F VSB 1
DETROIT LAKES  CLEAR     36  36 100 CALM      29.68F FOG
MOORHEAD       MOCLDY    41  41 100 CALM      29.70S FOG
FERGUS FALLS   CLEAR     41  36  81 CALM      29.68S
ELBOW LAKE     FAIR      36  35  94 SW6       29.70S
MORRIS MN      CLEAR     39  37  93 SW6       29.71S
STAPLES        FOG       36  36 100 CALM      29.68F VSB 1/4
WHEATON        CLEAR     39  39 100 S8        29.74S
$$
  *****  WEATHER ELSEWHERE ACROSS MINNESOTA  *****

CITY           SKY/WX    TMP DP  RH WIND       PRES   REMARKS
DULUTH         LGT SNOW  32  31  96 E10       29.67F FOG     WCI  24
INTRNTL FALLS  LGT SNOW  33  31  92 E7        29.72F FOG
ELY            LGT SNOW  34  30  86 E9        29.69F
CLOQUET        LGT SNOW  32  32 100 CALM      29.68F
BRAINERD       FOG       39  35  86 CALM      29.69S VSB 1/4
HIBBING        LGT SNOW  33  31  92 E3        29.68F FOG
ALEXANDRIA     CLEAR     39  35  86 CALM      29.71R
SAINT CLOUD    CLEAR     38  35  89 S8        29.70F
MINNEAPOLIS    CLEAR     42  38  85 CALM      29.73S
$$

  *****  WEATHER ACROSS SOUTH DAKOTA  *****

CITY           SKY/WX    TMP DP  RH WIND       PRES   REMARKS
SIOUX FALLS    CLEAR     45  33  63 W3        29.76R
BROOKINGS      NOT AVBL
WATERTOWN      CLEAR     41  39  93 S8        29.73S
HURON          CLEAR     45  21  38 SW7       29.75R
SISSETON         N/A     40  39  97 W6        29.72R
ABERDEEN       PTCLDY    44  29  55 N12       29.75R
MITCHELL       PTCLDY    50  24  36 W6        29.77R
PIERRE         CLOUDY    50  28  42 W5        29.77R
MOBRIDGE       CLOUDY    42  24  49 N3        29.74R
RAPID CITY     MOCLDY    46  28  49 N3        29.80R
$$

  *****  SOME WEATHER IN NEARBY STATES *****

CITY           SKY/WX    TMP DP  RH WIND       PRES   REMARKS
GLASGOW MT     CLOUDY    53  33  46 W9        29.72R
GREAT FALLS MT MOCLDY    45  32  60 SW15      29.77R
CHEYENNE WY    CLOUDY    50  22  33 SW10      29.94R
SCOTTSBLUFF NE CLOUDY    55  26  32 NW3       29.82S
OMAHA NE       CLEAR     50  42  74 E5        29.81R
DES MOINES IA  CLOUDY    49  43  80 NW7       29.80R
DAVENPORT IA   LGT RAIN  52  51  97 NW6       29.67R FOG
CHICAGO IL     LGT RAIN  53  38  56 E12       29.67F
EAU CLAIRE WI  CLOUDY    43  42  97 W7        29.70S
LA CROSSE WI   CLOUDY    46  40  79 W12       29.72S
$$

  *****  SOME NATIONAL WEATHER *****

CITY           SKY/WX    TMP DP  RH WIND       PRES   REMARKS
LA GUARDIA NY  CLEAR     51  17  26 N10       30.02R
RALEIGH NC     MOCLDY    58  36  43 SE6       30.01S
ATLANTA GA     MOCLDY    67  52  58 S7        29.92S
NEW ORLEANS LA PTCLDY    72  67  84 S10       29.93S
OKLAHOMA CITY  PTCLDY    58  39  49 E8        29.96R
ALBUQUERQUE NM CLEAR     63   5  10 NE7       30.03S
SALT LAKE CITY CLOUDY    62  23  22 CALM      29.87F
LOS ANGELES CA CLEAR     63  53  70 W6        29.93R
BOISE ID       CLOUDY    49  45  86 CALM      29.87R
SEATTLE WA     PTCLDY    47  43  86 SW7       29.90R
$$

*** WEATHER ACROSS MANITOBA...SASKATCHEWAN AND ONTARIO ***
                ***ONTARIO***

CITY           SKY/WX    TMP DP  RH WIND       PRES   REMARKS
GERALDTON      CLOUDY    39  25  56 E3        29.94F
THUNDER BAY    NOT AVBL
SIOUX LOOKOUT  LGT SNOW  32  32 100 E6        29.86F
TORONTO        MOCLDY    46  18  31 SE2       30.02F
BIG TROUT LK   CLEAR     21  16  79 E9G18     30.15F WCI  11
PICKLE LAKE    NOT AVBL
DRYDEN         LGT SNOW  32  32 100 E13G18    29.80F WCI  22
KENORA         LGT SNOW  32  32 100 E10       29.78F VSB 1   WCI  24
$$
                *** MANITOBA***

CITY           SKY/WX    TMP DP  RH WIND       PRES   REMARKS
BRANDON        CLOUDY    39  39 100 E9        29.74S FOG
DAUPHIN        CLOUDY    36  34  93 E10       29.78S FOG
ISLAND LAKE    MOCLDY    32  25  74 E12G17    30.03S WCI  23
PILOT MOUND      N/A     39  37  93 SE5         N/A
THE PAS        LGT SNOW  32  30  93 E10G23    29.96S WCI  24
THOMPSON       MOCLDY    25  18  74 E16       30.15S WCI  12
WINNIPEG       LGT SNOW  32  32 100 E7        29.79R FOG
LYNN LAKE      CLEAR     23  16  74 E15G21    30.13S WCI  10
CHURCHILL      FLURRIES  16  10  79 NE8       30.42S WCI   5
GILLAM         PTCLDY    18  14  86 NE12      30.26S WCI   5
$$
                ***SASKATCHEWAN***

CITY           SKY/WX    TMP DP  RH WIND       PRES   REMARKS
ESTEVAN        PTCLDY    39  32  75 W2        29.71R
KINDERSLEY     PTCLDY    34  32  93 NE10      29.73S
LLOYDMINSTER   FLURRIES  32  32 100 E10       29.79R WCI  24
PRINCE ALBERT  NOT AVBL
REGINA         PTCLDY    41  36  81 E3        29.72R
YORKTON        LGT RAIN  36  36 100 E8        29.74R



USA.gov is the U.S. government's official web portal to all federal, state and local government web resources and services.